Time,TemperatureF,DewpointF,PressureIn,WindDirection,WindDirectionDegrees,WindSpeedMPH,WindSpeedGustMPH,Humidity,HourlyPrecipIn,Conditions,Clouds,dailyrainin,SoftwareType,DateUTC
2013-03-02 00:04:00,46.9,44.0,30.21,West,260,0.0,0.0,90,0.00,,,0.00,weatherlink.com 1.10,2013-03-02 08:04:00,
2013-03-02 00:19:00,46.1,44.0,30.21,West,260,0.0,0.0,92,0.00,,,0.00,weatherlink.com 1.10,2013-03-02 08:19:00,
2013-03-02 00:34:00,46.1,44.0,30.21,West,260,0.0,2.0,93,0.00,,,0.00,weatherlink.com 1.10,2013-03-02 08:34:00,
2013-03-02 00:49:00,46.0,44.0,30.21,West,260,0.0,1.0,93,0.00,,,0.00,weatherlink.com 1.10,2013-03-02 08:49:00,
2013-03-02 01:04:00,46.1,45.0,30.20,West,260,0.0,2.0,94,0.00,,,0.00,weatherlink.com 1.10,2013-03-02 09:04:00,
2013-03-02 01:19:00,46.1,44.0,30.20,NW,324,0.0,2.0,93,0.00,,,0.00,weatherlink.com 1.10,2013-03-02 09:19:00,
2013-03-02 01:34:00,46.0,44.0,30.20,NW,324,0.0,2.0,93,0.00,,,0.00,weatherlink.com 1.10,2013-03-02 09:34:00,
2013-03-02 01:49:00,45.9,44.0,30.20,NW,324,0.0,1.0,93,0.00,,,0.00,weatherlink.com 1.10,2013-03-02 09:49:00,
2013-03-02 02:04:00,46.4,45.0,30.20,NW,324,0.0,0.0,94,0.00,,,0.00,weatherlink.com 1.10,2013-03-02 10:04:00,
2013-03-02 02:19:00,46.9,45.0,30.19,NW,324,0.0,0.0,94,0.00,,,0.00,weatherlink.com 1.10,2013-03-02 10:19:00,
2013-03-02 02:34:00,47.0,45.0,30.18,NW,324,0.0,0.0,94,0.00,,,0.00,weatherlink.com 1.10,2013-03-02 10:34:00,
2013-03-02 02:49:00,45.5,44.0,30.18,NW,315,0.0,3.0,93,0.00,,,0.00,weatherlink.com 1.10,2013-03-02 10:49:00,
2013-03-02 03:04:00,44.9,43.0,30.17,NW,315,0.0,0.0,94,0.00,,,0.00,weatherlink.com 1.10,2013-03-02 11:04:00,
2013-03-02 03:19:00,45.1,44.0,30.17,NW,310,2.0,2.0,94,0.00,,,0.00,weatherlink.com 1.10,2013-03-02 11:19:00,
2013-03-02 03:34:00,45.4,44.0,30.16,NW,314,0.0,3.0,94,0.00,,,0.00,weatherlink.com 1.10,2013-03-02 11:34:00,
2013-03-02 03:49:00,45.3,44.0,30.16,NW,314,0.0,1.0,94,0.00,,,0.00,weatherlink.com 1.10,2013-03-02 11:49:00,
2013-03-02 04:04:00,46.1,45.0,30.16,NW,314,0.0,1.0,95,0.00,,,0.00,weatherlink.com 1.10,2013-03-02 12:04:00,
2013-03-02 04:19:00,46.3,45.0,30.16,NW,316,0.0,2.0,94,0.00,,,0.00,weatherlink.com 1.10,2013-03-02 12:19:00,
2013-03-02 04:34:00,45.7,44.0,30.16,NW,316,0.0,2.0,95,0.00,,,0.00,weatherlink.com 1.10,2013-03-02 12:34:00,
2013-03-02 04:49:00,45.9,44.0,30.16,NW,316,0.0,1.0,94,0.00,,,0.00,weatherlink.com 1.10,2013-03-02 12:49:00,
2013-03-02 05:04:00,46.1,45.0,30.16,NW,316,0.0,0.0,95,0.00,,,0.00,weatherlink.com 1.10,2013-03-02 13:04:00,
2013-03-02 05:19:00,46.1,45.0,30.16,NW,316,0.0,0.0,94,0.00,,,0.00,weatherlink.com 1.10,2013-03-02 13:19:00,
2013-03-02 05:34:00,46.3,45.0,30.16,NW,316,0.0,0.0,95,0.00,,,0.00,weatherlink.com 1.10,2013-03-02 13:34:00,
2013-03-02 06:04:00,45.5,44.0,30.16,NW,317,0.0,3.0,93,0.00,,,0.00,weatherlink.com 1.10,2013-03-02 14:04:00,
2013-03-02 06:19:00,45.4,44.0,30.16,NW,317,0.0,1.0,94,0.00,,,0.00,weatherlink.com 1.10,2013-03-02 14:19:00,
2013-03-02 06:34:00,45.4,44.0,30.17,NW,317,0.0,0.0,95,0.00,,,0.00,weatherlink.com 1.10,2013-03-02 14:34:00,
2013-03-02 06:49:00,45.6,44.0,30.16,NW,317,0.0,0.0,95,0.00,,,0.00,weatherlink.com 1.10,2013-03-02 14:49:00,
2013-03-02 07:04:00,46.3,45.0,30.17,NNW,339,1.0,6.0,95,0.00,,,0.00,weatherlink.com 1.10,2013-03-02 15:04:00,
2013-03-02 07:19:00,45.3,44.0,30.18,NNW,336,1.0,2.0,94,0.00,,,0.00,weatherlink.com 1.10,2013-03-02 15:19:00,
2013-03-02 07:34:00,45.2,44.0,30.18,NNW,333,0.0,0.0,95,0.00,,,0.00,weatherlink.com 1.10,2013-03-02 15:34:00,
2013-03-02 07:49:00,45.9,45.0,30.17,NNW,333,0.0,0.0,95,0.00,,,0.00,weatherlink.com 1.10,2013-03-02 15:49:00,
2013-03-02 08:04:00,47.3,46.0,30.18,NNW,346,0.0,1.0,96,0.00,,,0.00,weatherlink.com 1.10,2013-03-02 16:04:00,
2013-03-02 08:19:00,48.8,47.0,30.17,NNW,346,0.0,1.0,94,0.00,,,0.00,weatherlink.com 1.10,2013-03-02 16:19:00,
2013-03-02 08:34:00,50.1,48.0,30.17,North,351,2.0,3.0,91,0.00,,,0.00,weatherlink.com 1.10,2013-03-02 16:34:00,
2013-03-02 08:49:00,50.9,48.0,30.17,NNW,327,0.0,4.0,91,0.00,,,0.00,weatherlink.com 1.10,2013-03-02 16:49:00,
2013-03-02 09:05:00,52.9,50.0,30.17,ENE,68,0.0,3.0,88,0.00,,,0.00,weatherlink.com 1.10,2013-03-02 17:05:00,
2013-03-02 14:04:00,68.7,54.0,30.07,SW,231,0.0,6.0,60,0.00,,,0.00,weatherlink.com 1.10,2013-03-02 22:04:00,
2013-03-02 17:35:00,62.0,53.0,30.05,WSW,254,0.0,1.0,73,0.00,,,0.00,weatherlink.com 1.10,2013-03-03 01:35:00,
2013-03-02 17:50:00,61.2,53.0,30.04,WSW,254,0.0,0.0,74,0.00,,,0.00,weatherlink.com 1.10,2013-03-03 01:50:00,
2013-03-02 18:05:00,60.3,52.0,30.04,WSW,254,0.0,1.0,75,0.00,,,0.00,weatherlink.com 1.10,2013-03-03 02:05:00,
2013-03-02 18:20:00,59.4,52.0,30.04,WSW,254,0.0,0.0,77,0.00,,,0.00,weatherlink.com 1.10,2013-03-03 02:20:00,
2013-03-02 18:35:00,58.3,51.0,30.04,WSW,254,0.0,0.0,78,0.00,,,0.00,weatherlink.com 1.10,2013-03-03 02:35:00,
2013-03-02 18:50:00,57.0,51.0,30.04,South,184,0.0,2.0,80,0.00,,,0.00,weatherlink.com 1.10,2013-03-03 02:50:00,
2013-03-02 19:05:00,55.9,50.0,30.04,West,265,0.0,1.0,81,0.00,,,0.00,weatherlink.com 1.10,2013-03-03 03:05:00,
2013-03-02 19:20:00,55.2,50.0,30.05,SW,223,0.0,1.0,83,0.00,,,0.00,weatherlink.com 1.10,2013-03-03 03:20:00,
2013-03-02 19:35:00,54.6,50.0,30.04,SSE,165,0.0,3.0,83,0.00,,,0.00,weatherlink.com 1.10,2013-03-03 03:35:00,
2013-03-02 19:50:00,54.1,49.0,30.04,SW,230,0.0,2.0,84,0.00,,,0.00,weatherlink.com 1.10,2013-03-03 03:50:00,
2013-03-02 20:05:00,53.8,49.0,30.04,SW,230,0.0,1.0,85,0.00,,,0.00,weatherlink.com 1.10,2013-03-03 04:05:00,
2013-03-02 20:20:00,53.5,49.0,30.05,SW,230,0.0,0.0,85,0.00,,,0.00,weatherlink.com 1.10,2013-03-03 04:20:00,
2013-03-02 20:35:00,53.4,49.0,30.05,West,279,0.0,2.0,85,0.00,,,0.00,weatherlink.com 1.10,2013-03-03 04:35:00,
2013-03-02 20:50:00,53.6,49.0,30.06,SSW,202,1.0,2.0,84,0.00,,,0.00,weatherlink.com 1.10,2013-03-03 04:50:00,
2013-03-02 21:05:00,53.3,49.0,30.06,SSW,202,0.0,1.0,85,0.00,,,0.00,weatherlink.com 1.10,2013-03-03 05:05:00,
2013-03-02 21:20:00,53.0,49.0,30.06,SSW,202,0.0,0.0,85,0.00,,,0.00,weatherlink.com 1.10,2013-03-03 05:20:00,
2013-03-02 21:35:00,52.4,48.0,30.07,SSW,200,0.0,1.0,86,0.00,,,0.00,weatherlink.com 1.10,2013-03-03 05:35:00,
2013-03-02 21:50:00,51.8,48.0,30.06,WSW,252,0.0,0.0,86,0.00,,,0.00,weatherlink.com 1.10,2013-03-03 05:50:00,
2013-03-02 22:05:00,51.5,48.0,30.06,SW,227,0.0,0.0,87,0.00,,,0.00,weatherlink.com 1.10,2013-03-03 06:05:00,
2013-03-02 22:20:00,51.2,48.0,30.06,SW,227,0.0,1.0,88,0.00,,,0.00,weatherlink.com 1.10,2013-03-03 06:20:00,
2013-03-02 22:35:00,51.0,48.0,30.06,SW,227,0.0,0.0,88,0.00,,,0.00,weatherlink.com 1.10,2013-03-03 06:35:00,
2013-03-02 22:50:00,50.9,48.0,30.06,SW,227,0.0,0.0,89,0.00,,,0.00,weatherlink.com 1.10,2013-03-03 06:50:00,
2013-03-02 23:05:00,50.8,48.0,30.06,WSW,254,0.0,2.0,89,0.00,,,0.00,weatherlink.com 1.10,2013-03-03 07:05:00,
2013-03-02 23:20:00,50.6,48.0,30.04,NNW,348,0.0,2.0,89,0.00,,,0.00,weatherlink.com 1.10,2013-03-03 07:20:00,
2013-03-02 23:35:00,50.5,47.0,30.04,NNW,347,0.0,1.0,89,0.00,,,0.00,weatherlink.com 1.10,2013-03-03 07:35:00,
2013-03-02 23:50:00,50.1,47.0,30.04,SE,131,0.0,2.0,90,0.00,,,0.00,weatherlink.com 1.10,2013-03-03 07:50:00,